Location: Vinland
(47.7731°N, 122.6974°W)
Time: 19:54:50
(UTC+00:00)

Vanguard 1 Rocket - Pass Details

Date: 28 March 2023
Orbit: 655 x 4220 km, 34.3° (Epoch: 05 June)

Event Time Altitude Azimuth Distance (km) Brightness Sun altitude
Rises 07:15:56 0° 244° (WSW) 8,423 12.3 -37.6°
Reaches altitude 10° 07:22:23 10° 240° (WSW) 7,217 11.8 -38.0°
Enters shadow 07:35:39 36° 219° (SW) 4,645 10.6 -38.5°
